TANSTAAFL-2 (62378 NORAD) Tracking and Keplerian Element Data

This shows tracking and keplerian element data for the satellite.

Feedback or suggestion? Click here.




ElementValue
Catalog62378
NameTANSTAAFL-2
Epoch Orbit695
Epoch Day35.25053809
Epoch Year2025
RAAN119.7154
Inclination44.9957
Eccentricity0.0002614
Argument of Perigee289.8461
Mean Anonmoly70.2137
Mean Motion15.19479796
Decay Rate0.00013804
L11 62378U 24247B 25035.25053809 .00013804 00000+0 65064-3 0 9991
L22 62378 44.9957 119.7154 0002614 289.8461 70.2137 15.19479796 6953



Live tracking and technical data element details for TANSTAAFL-2 (NORAD 62378). TANSTAAFL-2 can be tracked NOW for your location showing map with azimuth and elevation plus other details from your city location.







IsCatalogInMostPopularTable: catalog: 62378, numindb: 11
Update: records affected: 1



GetName: 62378 TANSTAAFL-2

Hit Count: updated at: Sun, 18 May 2025 22:42:05 GMT